When you browse on this site, cookies collect data to enhance your experience and personalize the content and advertising you see.
Visit our Privacy Policy to learn more. By continuing to use the site, you agree to this use of cookies and data.
  • In Hungary
  • List of Countries
  • For 7 days
  • Water Temperature
  • Weather Map
  • News
  • Weather Widgets
  • user-avatar
    Login

    Hourly Weather Aleshnya

    Today, 21 January, Tuesday

    Time Temperature Precipitation Wind Pressure Humidity
    00:00 -3°C° 0 mm 7 mps 751 mmHg 89%
    01:00 -3°C° 0 mm 6 mps 750 mmHg 89%
    02:00 -4°C° 0 mm 6 mps 750 mmHg 89%
    03:00 -3°C° 0 mm 6 mps 749 mmHg 89%
    04:00 -3°C° 0 mm 6 mps 748 mmHg 90%
    05:00 -3°C° 0 mm 7 mps 747 mmHg 90%
    06:00 -3°C° 0.1 mm 7 mps 747 mmHg 91%
    07:00 -3°C° 0.1 mm 7 mps 746 mmHg 92%
    08:00 -3°C° 0.1 mm 7 mps 745 mmHg 94%
    09:00 -2°C° 0.1 mm 7 mps 744 mmHg 94%
    10:00 -2°C° 0.1 mm 8 mps 743 mmHg 94%
    11:00 -1°C° 0.1 mm 8 mps 743 mmHg 94%
    12:00 -1°C° 0.2 mm 8 mps 742 mmHg 95%
    13:00 -1°C° 0.2 mm 7 mps 742 mmHg 95%
    14:00 -1°C° 0.2 mm 7 mps 741 mmHg 95%
    15:00 0°C° 0 mm 7 mps 740 mmHg 95%
    16:00 0°C° 0 mm 7 mps 740 mmHg 95%
    17:00 0°C° 0 mm 7 mps 739 mmHg 94%
    18:00 0°C° 0.4 mm 7 mps 738 mmHg 95%
    19:00 0°C° 0.4 mm 7 mps 737 mmHg 95%
    20:00 0°C° 0.4 mm 8 mps 736 mmHg 95%
    21:00 +1°C° 0.5 mm 8 mps 735 mmHg 94%
    22:00 +1°C° 0.5 mm 8 mps 735 mmHg 93%
    23:00 +1°C° 0.5 mm 8 mps 735 mmHg 92%

    Tomorrow, 22 January, Wednesday

    Time Temperature Precipitation Wind Pressure Humidity
    00:00 0°C° 0.1 mm 8 mps 735 mmHg 87%
    01:00 -1°C° 0.1 mm 7 mps 736 mmHg 83%
    02:00 -2°C° 0.1 mm 7 mps 736 mmHg 79%
    03:00 -2°C° 0 mm 6 mps 736 mmHg 79%
    04:00 -3°C° 0 mm 6 mps 736 mmHg 80%
    05:00 -3°C° 0 mm 6 mps 735 mmHg 80%
    06:00 -3°C° 0 mm 6 mps 735 mmHg 81%
    07:00 -4°C° 0 mm 6 mps 735 mmHg 83%
    08:00 -4°C° 0 mm 7 mps 735 mmHg 84%
    09:00 -4°C° 0 mm 7 mps 735 mmHg 82%
    10:00 -3°C° 0 mm 7 mps 734 mmHg 81%
    11:00 -3°C° 0 mm 7 mps 734 mmHg 79%
    12:00 -3°C° 0 mm 7 mps 733 mmHg 78%
    13:00 -3°C° 0 mm 7 mps 733 mmHg 76%
    14:00 -3°C° 0 mm 6 mps 732 mmHg 75%
    15:00 -3°C° 0.1 mm 6 mps 732 mmHg 78%
    16:00 -3°C° 0.1 mm 6 mps 732 mmHg 82%
    17:00 -4°C° 0.1 mm 5 mps 732 mmHg 85%
    18:00 -4°C° 0 mm 5 mps 732 mmHg 84%
    19:00 -4°C° 0 mm 5 mps 733 mmHg 82%
    20:00 -5°C° 0 mm 5 mps 733 mmHg 81%
    21:00 -5°C° 0 mm 5 mps 733 mmHg 81%
    22:00 -5°C° 0 mm 5 mps 733 mmHg 81%
    23:00 -5°C° 0 mm 5 mps 734 mmHg 80%

    Day after tomorrow, 23 January, Thursday

    Time Temperature Precipitation Wind Pressure Humidity
    00:00 -5°C° 0 mm 6 mps 734 mmHg 80%
    01:00 -5°C° 0 mm 6 mps 735 mmHg 79%
    02:00 -6°C° 0 mm 6 mps 735 mmHg 79%
    03:00 -6°C° 0 mm 6 mps 736 mmHg 77%
    04:00 -7°C° 0 mm 7 mps 736 mmHg 76%
    05:00 -8°C° 0 mm 7 mps 736 mmHg 75%
    06:00 -8°C° 0 mm 7 mps 737 mmHg 72%
    07:00 -8°C° 0 mm 7 mps 738 mmHg 70%
    08:00 -9°C° 0 mm 7 mps 738 mmHg 68%
    09:00 -9°C° 0 mm 7 mps 739 mmHg 65%
    10:00 -8°C° 0 mm 8 mps 739 mmHg 63%
    11:00 -8°C° 0 mm 8 mps 740 mmHg 60%
    12:00 -8°C° 0 mm 8 mps 740 mmHg 60%
    13:00 -8°C° 0 mm 8 mps 740 mmHg 60%
    14:00 -8°C° 0 mm 8 mps 741 mmHg 60%
    15:00 -8°C° 0 mm 7 mps 741 mmHg 63%
    16:00 -8°C° 0 mm 7 mps 742 mmHg 65%
    17:00 -8°C° 0 mm 6 mps 742 mmHg 68%
    18:00 -9°C° 0 mm 6 mps 743 mmHg 69%
    19:00 -8°C° 0 mm 5 mps 743 mmHg 70%
    20:00 -8°C° 0 mm 5 mps 744 mmHg 70%
    21:00 -8°C° 0 mm 5 mps 744 mmHg 70%
    22:00 -8°C° 0 mm 4 mps 745 mmHg 70%
    23:00 -9°C° 0 mm 4 mps 745 mmHg 70%

    24 January, Friday

    Time Temperature Precipitation Wind Pressure Humidity
    00:00 -9°C° 0 mm 4 mps 745 mmHg 72%
    01:00 -9°C° 0 mm 4 mps 745 mmHg 73%
    02:00 -9°C° 0 mm 4 mps 746 mmHg 74%
    03:00 -9°C° 0 mm 4 mps 745 mmHg 78%
    04:00 -8°C° 0 mm 4 mps 745 mmHg 81%
    05:00 -8°C° 0 mm 4 mps 745 mmHg 85%
    06:00 -8°C° 0 mm 4 mps 744 mmHg 87%
    07:00 -7°C° 0 mm 5 mps 744 mmHg 89%
    08:00 -7°C° 0 mm 5 mps 744 mmHg 91%
    09:00 -6°C° 0.1 mm 6 mps 743 mmHg 91%
    10:00 -6°C° 0.1 mm 6 mps 743 mmHg 90%
    11:00 -6°C° 0.1 mm 7 mps 743 mmHg 89%
    12:00 -6°C° 0 mm 7 mps 742 mmHg 89%
    13:00 -4°C° 0 mm 6 mps 742 mmHg 90%
    14:00 -4°C° 0 mm 6 mps 742 mmHg 90%
    15:00 -4°C° 0 mm 6 mps 742 mmHg 91%
    16:00 -3°C° 0 mm 6 mps 742 mmHg 91%
    17:00 -3°C° 0 mm 6 mps 742 mmHg 92%
    18:00 -2°C° 0 mm 6 mps 742 mmHg 92%
    19:00 -1°C° 0 mm 5 mps 742 mmHg 92%
    20:00 -1°C° 0 mm 5 mps 743 mmHg 92%
    21:00 -1°C° 0 mm 5 mps 743 mmHg 93%
    22:00 -1°C° 0 mm 5 mps 743 mmHg 94%
    23:00 -1°C° 0 mm 5 mps 743 mmHg 95%

    25 January, Saturday

    Time Temperature Precipitation Wind Pressure Humidity
    00:00 -1°C° 0 mm 5 mps 743 mmHg 95%
    01:00 -1°C° 0 mm 5 mps 742 mmHg 96%
    02:00 -2°C° 0 mm 6 mps 742 mmHg 97%
    03:00 -2°C° 0 mm 6 mps 742 mmHg 97%
    04:00 -2°C° 0 mm 6 mps 742 mmHg 97%
    05:00 -2°C° 0 mm 6 mps 742 mmHg 97%
    06:00 -2°C° 0 mm 6 mps 742 mmHg 95%
    07:00 -2°C° 0 mm 6 mps 742 mmHg 93%
    08:00 -2°C° 0 mm 6 mps 742 mmHg 92%
    09:00 -2°C° 0 mm 6 mps 742 mmHg 90%
    10:00 -2°C° 0 mm 6 mps 742 mmHg 88%
    11:00 -2°C° 0 mm 7 mps 742 mmHg 86%
    12:00 -2°C° 0 mm 6 mps 742 mmHg 86%
    13:00 -2°C° 0 mm 6 mps 742 mmHg 86%
    14:00 -1°C° 0 mm 5 mps 742 mmHg 85%
    15:00 -2°C° 0 mm 5 mps 742 mmHg 87%
    16:00 -2°C° 0 mm 5 mps 743 mmHg 90%
    17:00 -2°C° 0 mm 4 mps 743 mmHg 92%
    18:00 -2°C° 0 mm 4 mps 743 mmHg 92%
    19:00 -2°C° 0 mm 4 mps 743 mmHg 93%
    20:00 -2°C° 0 mm 4 mps 743 mmHg 94%
    21:00 -2°C° 0 mm 4 mps 743 mmHg 94%
    22:00 -2°C° 0 mm 4 mps 743 mmHg 95%
    23:00 -1°C° 0 mm 3 mps 744 mmHg 95%

    26 January, Sunday

    Time Temperature Precipitation Wind Pressure Humidity
    00:00 -1°C° 0 mm 3 mps 743 mmHg 95%
    01:00 -2°C° 0 mm 3 mps 743 mmHg 95%
    02:00 -2°C° 0 mm 3 mps 743 mmHg 95%
    03:00 -2°C° 0.1 mm 2 mps 743 mmHg 96%
    04:00 -2°C° 0.1 mm 2 mps 743 mmHg 97%
    05:00 -2°C° 0.1 mm 2 mps 743 mmHg 97%
    06:00 -2°C° 0.2 mm 2 mps 743 mmHg 97%
    07:00 -2°C° 0.2 mm 2 mps 743 mmHg 97%
    08:00 0°C° 0.2 mm 1 mps 744 mmHg 97%
    09:00 +1°C° 0 mm 1 mps 744 mmHg 97%
    10:00 +1°C° 0 mm 1 mps 744 mmHg 96%
    11:00 +1°C° 0 mm 1 mps 744 mmHg 95%
    12:00 -1°C° 0 mm 2 mps 744 mmHg 96%
    13:00 -1°C° 0 mm 2 mps 744 mmHg 96%
    14:00 +1°C° 0 mm 2 mps 744 mmHg 97%
    15:00 -1°C° 0 mm 2 mps 744 mmHg 97%
    16:00 -1°C° 0 mm 2 mps 745 mmHg 98%
    17:00 +1°C° 0 mm 1 mps 745 mmHg 98%
    18:00 -1°C° 0 mm 2 mps 745 mmHg 98%
    19:00 -1°C° 0 mm 2 mps 745 mmHg 97%
    20:00 -1°C° 0 mm 2 mps 745 mmHg 97%
    21:00 -1°C° 0 mm 2 mps 745 mmHg 97%
    22:00 -1°C° 0 mm 2 mps 745 mmHg 97%
    23:00 -1°C° 0 mm 2 mps 745 mmHg 97%
    Show more